YAOGAN 30

导读

YAOGAN 30(遥感三十号)是中国研制的遥感卫星,于北京时间2016年5月15日08:00成功发射,它采用多星组网模式运行,主要任务是开展空间电磁环境探测与相关航天技术试验。该卫星由中国航天科研团队研制,发射任务由长征系列运载火箭执行,完成入轨后进入预定轨道,相关测控由中国航天测控网保障,为我国空间环境科学研究提供了重要数据支撑,推动了航天遥感探测技术的发展。

Basic Information
目录编号:
41473
目录名称:
YAOGAN 30
国际标识:
2016-029A
轨道中心:
EARTH
卫星名称:
YAOGAN 30
卫星全名:
--
卫星状态:
在轨 (已飞行3684 天)
发射日期:
2016-05-15 UTC
国别 :
中国 (CN)
星等 :
--
Orbit Information
数据来源 国际轨道数据 AOE轨道数据
星历时间 2026-06-16T14:36:06+0800
5小时前
查看轨道信息
2026-06-15T00:00:00+0800
1天前
查看轨道信息
半长轴 7019.272km 7019.266km
偏心率 0.001427 0.0014102
轨道倾角 97.901° 97.901°
近地点辐角 233.416° 240.418°
升交点赤经 217.192° 215.620°
平近点角 126.574° 216.839°
近地点 631.118km 631.23km
远地点 651.152km 651.028km
周期 97.543分钟 97.543分钟
每日圈数 14.762664 14.762681
Detailed Information
使用方式:
暂无
2D Orbit Map
3D Orbit Map
Orbit Altitude Analysis Chart
Orbit Inclination Analysis Chart
Orbit Comprehensive Analysis Chart
View Comprehensive Chart